"Pseudo-MPEC" for xkos260

Created 2022 Dec 7 12:22:18 UT using Find_Orb

Click here for an explanation of pseudo-MPECs

 
 Astrometry: 
     xkos260*KC2022 11 13RgK[u9UAstrometryuQibPlmc@G1#PY?Cql'x#C.U0Y6+rk'#4C-L87
     xkos260 KC2022 11 136K8\$B;CefiFGgIjPX!/n`\9g9(d!.ULcm.g5#dTC.Tku#[K[65)L87
     xkos260 KC2022 11 13wKw%]?g8EP_SqN06(TD]ys:ZyPKh3H90@1i#+WoPaT^Y(nIem!fpL87
     xkos260 KC2022 11 136eFa-4cx)2h-=yVm`1QsmB254$V_:u_U)s)rGo`.2_eZyPeswe;0L87
     xkos260 KC2022 11 13B+xF;]:6Coredacted;sp3#clickh4L(w_AsAF8:C$/S:,UC:F@cL87
     xkos260 KC2022 11 13?7vvYdIb;b)W5J#Mhere!+N.+h:+x8EDX.=I^:)#=EYNPnS-Aq.ML87
     xkos260 KC2022 11 13y=XB1d@Ic(L[+dO4gFY`%forb6s;CofRBfIT.Zr(*\Ffb[qLe`:1L87
     xkos260 KC2022 11 13?k[jdv33=?U]h0E#(MaMMbxSM^m9XexplanationG*97Hj$\aDkxL87

Station data:
(L87) Moonbase South Observatory, Hakos  (S23.236420 E16.361890)  Namibia.
   Observer G. Duszanowicz. 0.36-m f/7.7 reflector + CCD.

Orbital elements:  xkos260
   Perihelion 2022 Oct 27.98052 +/- 15.8 TT = 23:31:57 (JD 2459880.48052)
Epoch 2022 Nov 14.0 TT = JDT 2459897.5   Earth MOID: 0.2881   Ma: 0.0054
M   3.91924090 +/- 3.0              (J2000 ecliptic)          AutoNEOCP
n   0.23027974 +/- 0.0376           Peri.  232.98724 +/- 31
a   2.63612232 +/- 0.287            Node   160.96742 +/- 17
e   0.5315256 +/- 0.0488            Incl.   11.77536 +/- 1.3
P   4.28                   H 18.1   G  0.15   U 10.5  SR
q 1.23495564 +/- 0.0195    Q 4.03728900 +/- 0.635
From 8 observations 2022 Nov. 13 (20.0 min); mean residual 0".67
Residuals in arcseconds: 
221113 L87  .33-  .39+    221113 L87  .06-  .22+    221113 L87  .16-  .08+    
221113 L87  .20-  .45-    221113 L87  .54-  1.4+    221113 L87  .41-  .91-    
221113 L87  1.1+  1.2-    221113 L87  .38+  .74+    

Ephemerides (geocentric):
Date (UTC) HH   RA             Dec           delta  r     elong  mag " sig PA
---- --------  ------------   ------------  ------ ------ -----  --- --------
2022 12 07 12  03 46 04.744   -20 26 44.70  .42464 1.3153 133.8 18.3 5186 130
2022 12 07 13  03 46 07.329   -20 25 39.65  .42483 1.3154 133.8 18.3 5205 130
2022 12 07 14  03 46 09.915   -20 24 34.56  .42502 1.3156 133.8 18.3 5224 130
2022 12 07 15  03 46 12.500   -20 23 29.42  .42522 1.3157 133.8 18.3 5242 130
2022 12 07 16  03 46 15.085   -20 22 24.25  .42541 1.3159 133.8 18.3 5261 130
2022 12 07 17  03 46 17.670   -20 21 19.03  .42560 1.3160 133.8 18.3 5280 130
2022 12 07 18  03 46 20.255   -20 20 13.77  .42580 1.3162 133.8 18.3 5299 130
2022 12 07 19  03 46 22.840   -20 19 08.47  .42599 1.3164 133.8 18.3 5318 130
2022 12 07 20  03 46 25.425   -20 18 03.13  .42619 1.3165 133.8 18.3 5337 130
2022 12 07 21  03 46 28.010   -20 16 57.75  .42638 1.3167 133.8 18.3 5356 130
2022 12 07 22  03 46 30.594   -20 15 52.32  .42658 1.3168 133.8 18.3 5375 130
2022 12 07 23  03 46 33.179   -20 14 46.86  .42677 1.3170 133.8 18.3 5394 130
2022 12 08 00  03 46 35.764   -20 13 41.35  .42696 1.3172 133.8 18.3 5413 130
2022 12 08 01  03 46 38.349   -20 12 35.81  .42716 1.3173 133.8 18.3 5432 130
2022 12 08 02  03 46 40.933   -20 11 30.22  .42736 1.3175 133.8 18.3 5451 130
2022 12 08 03  03 46 43.518   -20 10 24.60  .42755 1.3176 133.8 18.3 5471 130
2022 12 08 04  03 46 46.103   -20 09 18.93  .42775 1.3178 133.8 18.3 5490 130
2022 12 08 05  03 46 48.687   -20 08 13.22  .42794 1.3179 133.8 18.3 5509 130
2022 12 08 06  03 46 51.272   -20 07 07.48  .42814 1.3181 133.8 18.3 5528 130
2022 12 08 07  03 46 53.856   -20 06 01.69  .42833 1.3183 133.8 18.3 5548 130
2022 12 08 08  03 46 56.441   -20 04 55.87  .42853 1.3184 133.8 18.3 5567 130
2022 12 08 09  03 46 59.026   -20 03 50.00  .42873 1.3186 133.8 18.3 5587 130
2022 12 08 10  03 47 01.610   -20 02 44.09  .42892 1.3187 133.8 18.3 5606 130
2022 12 08 11  03 47 04.195   -20 01 38.15  .42912 1.3189 133.8 18.3 5625 130
2022 12 08 12  03 47 06.779   -20 00 32.16  .42932 1.3191 133.8 18.3 5645 130
2022 12 08 13  03 47 09.364   -19 59 26.14  .42951 1.3192 133.8 18.3 5664 130
2022 12 08 14  03 47 11.949   -19 58 20.08  .42971 1.3194 133.8 18.3 5684 130
2022 12 08 15  03 47 14.533   -19 57 13.98  .42991 1.3195 133.8 18.3 5704 130
2022 12 08 16  03 47 17.118   -19 56 07.84  .43011 1.3197 133.8 18.3 5723 130
2022 12 08 17  03 47 19.703   -19 55 01.66  .43030 1.3199 133.8 18.3 5743 129
2022 12 08 18  03 47 22.287   -19 53 55.44  .43050 1.3200 133.8 18.3 5763 129
2022 12 08 19  03 47 24.872   -19 52 49.18  .43070 1.3202 133.8 18.3 5782 129
2022 12 08 20  03 47 27.457   -19 51 42.89  .43090 1.3204 133.8 18.3 5802 129
2022 12 08 21  03 47 30.042   -19 50 36.55  .43110 1.3205 133.8 18.3 5822 129
2022 12 08 22  03 47 32.626   -19 49 30.18  .43130 1.3207 133.8 18.3 5842 129
2022 12 08 23  03 47 35.211   -19 48 23.77  .43150 1.3208 133.8 18.3 5861 129
2022 12 09 00  03 47 37.796   -19 47 17.32  .43169 1.3210 133.8 18.3 5881 129
2022 12 09 01  03 47 40.381   -19 46 10.84  .43189 1.3212 133.8 18.3 5901 129
2022 12 09 02  03 47 42.966   -19 45 04.31  .43209 1.3213 133.8 18.3 5921 129
2022 12 09 03  03 47 45.551   -19 43 57.75  .43229 1.3215 133.8 18.3 5941 129
2022 12 09 04  03 47 48.136   -19 42 51.15  .43249 1.3216 133.8 18.3 5961 129
2022 12 09 05  03 47 50.722   -19 41 44.52  .43269 1.3218 133.8 18.3 5981 129
2022 12 09 06  03 47 53.307   -19 40 37.84  .43289 1.3220 133.8 18.3 6001 129
2022 12 09 07  03 47 55.892   -19 39 31.13  .43309 1.3221 133.8 18.3 6021 129
2022 12 09 08  03 47 58.478   -19 38 24.39  .43329 1.3223 133.8 18.3 6041 129
2022 12 09 09  03 48 01.063   -19 37 17.60  .43349 1.3225 133.8 18.3 6062 129
2022 12 09 10  03 48 03.649   -19 36 10.78  .43369 1.3226 133.8 18.3 6082 129
2022 12 09 11  03 48 06.234   -19 35 03.92  .43390 1.3228 133.8 18.3 6102 129